[[{"header":{"parameterUnit":"m.s-1","parameterCategory":1,"la1":30.2991,"la2":30.254,"lo1":-89.0895,"lo2":-89.0444,"dy":0.0017,"dx":0.0017,"nx":28,"ny":28,"refTime":"2026-02-11T09:00:00:Z","depth":0,"parameterNumber":2,"parameterNumberName":"U-component_of_WINDS"},"data":[0,0,0,0,0,0,0,0,0,0,0,0,0,0,0,0,0,0,0,0,0,0,0,0,0,0,0,0,0,0,0,0,0,0,0,0,0,0,0,0,0,0,0,0,0,0,0,0,0,0,0,0,0,0,0,0,0,0,1.4885,1.4885,0,1.4894,1.4894,1.4894,1.4849,1.4847,1.4846,1.4845,1.4857,1.4859,1.486,0,0,0,0,0,0,0,0,0,0,0,0,0,1.483,1.4832,1.4885,1.4885,1.4885,1.4894,1.4894,1.4894,1.4849,1.4847,1.4846,1.4844,1.4857,1.4858,1.486,0,0,0,0,0,0,0,0,0,0,0,0,0,1.4848,1.4832,1.4885,1.4863,1.4861,1.4894,1.4894,1.4894,1.4849,1.4847,1.4845,1.4843,1.4856,1.4858,1.4861,1.4915,0,0,1.4868,1.4869,0,0,0,0,0,0,0,0,1.4847,1.485,1.4866,1.4865,1.4863,1.4868,1.4879,1.4901,1.485,1.4854,1.4845,1.4842,1.4863,1.4864,1.487,1.4915,1.4916,1.4868,1.4869,1.487,1.4871,0,0,0,0,0,0,0,1.4846,1.485,1.4888,1.4867,1.4864,1.4854,1.4854,1.4883,1.4869,1.4853,1.485,1.4852,1.4861,1.4868,1.487,1.4916,1.4868,1.487,1.4871,1.4872,1.5005,1.5007,0,0,0,0,0,0,1.4847,1.4849,1.4888,1.4888,1.485,1.4857,1.4857,1.4868,1.4869,1.4867,1.4853,1.4849,1.4865,1.4868,1.4871,1.4933,1.487,1.4873,1.4874,1.5003,1.5006,1.5008,0,0,0,0,0,0,1.4846,1.4851,1.4888,1.4868,1.4872,1.486,1.4873,1.487,1.4876,1.4869,1.4866,1.4863,1.4864,1.4867,1.4904,1.4933,1.4874,1.4876,1.5001,1.5004,1.5007,1.5059,0,0,0,0,0,0,1.4845,1.4851,1.4871,1.4869,1.4873,1.492,1.4875,1.4871,1.488,1.4875,1.4877,1.4875,1.4862,1.49,1.4906,1.4935,1.4878,1.4998,1.5002,1.5006,1.5055,1.5063,1.5071,0,0,0,0,0,1.4843,1.4886,1.4872,1.4877,1.4897,1.4922,1.4924,1.4907,1.4883,1.4903,1.4898,1.4875,1.4929,1.4905,1.491,1.4941,1.4996,1.5001,1.5005,1.5051,1.5062,1.5071,0,0,0,0,0,0,1.4893,1.4885,1.487,1.4913,1.4918,1.4914,1.4938,1.492,1.4933,1.4928,1.4907,1.4908,1.4948,1.4948,1.4921,1.4993,1.4958,1.4965,1.4991,1.5001,1.5009,1.5008,1.488,0,0,0,0,0,1.4909,1.4929,1.4921,1.496,1.4963,1.4951,1.4961,1.4947,1.4952,1.4954,1.4952,1.4959,1.4977,1.4989,1.5006,1.5055,1.5054,1.5079,1.5087,1.5094,1.5099,1.5124,1.5135,1.5024,1.5023,1.5023,0,0,1.4942,1.4941,1.4954,1.497,1.4972,1.4994,1.4953,1.4977,1.4993,1.4958,1.4992,1.4991,1.4997,1.5039,1.5058,1.5041,1.513,1.51,1.5105,1.5107,1.513,1.5141,1.515,1.5027,1.5026,1.5026,0,0,1.5013,1.5014,1.5046,1.5049,1.5053,1.5044,1.5052,1.5051,1.5048,1.5081,1.5056,1.5075,1.5107,1.5112,1.5118,1.5192,1.5171,1.5198,1.5241,1.5266,1.5274,1.5282,1.5307,1.5317,1.5203,1.5203,1.5203,0,1.5054,1.5084,1.5065,1.5091,1.5099,1.5068,1.51,1.5105,1.5114,1.512,1.5101,1.5139,1.5141,1.5184,1.5202,1.5209,1.5217,1.5197,1.5275,1.5282,1.5289,1.5313,1.5322,1.5206,1.5206,1.5206,1.5206,0,1.5134,1.5156,1.5181,1.519,1.52,1.523,1.5216,1.5229,1.5215,1.5209,1.5243,1.5244,1.526,1.5269,1.5257,1.5311,1.53,1.5278,1.5243,1.5303,1.5325,1.5334,1.5211,1.521,1.5209,1.5208,0,0,1.5236,1.5233,1.5243,1.5246,1.5248,1.5265,1.5293,1.5307,1.5319,1.5327,1.535,1.5377,1.5357,1.5365,1.5352,1.5374,1.5431,1.5349,1.5349,1.5364,1.549,1.5505,1.5516,1.5418,1.542,1.5421,1.5489,0,1.5304,1.535,1.5334,1.5382,1.5401,1.5373,1.5397,1.5401,1.5397,1.5413,1.5408,1.5427,1.5399,1.5404,1.5424,1.542,1.5456,1.5415,1.5439,1.544,1.5437,1.5527,1.5544,1.5608,1.5497,1.5499,1.55,0,1.539,1.54,1.5449,1.5447,1.5455,1.5477,1.5489,1.5505,1.5509,1.5504,1.5513,1.5496,1.5524,1.5489,1.5527,1.55,1.5509,1.5508,1.5511,1.5511,1.5473,1.5529,1.5628,1.5637,1.5513,1.5512,1.5511,0,1.5458,1.5484,1.5516,1.552,1.552,1.5536,1.5536,1.5539,1.5548,1.5559,1.5565,1.558,1.5587,1.5599,1.5586,1.5563,1.5626,1.5591,1.5622,1.5623,1.5636,1.5635,1.5736,1.5644,1.5644,1.5644,1.5644,0,1.5535,1.5566,1.5546,1.5566,1.56,1.5582,1.5617,1.5614,1.5617,1.5636,1.5613,1.5632,1.5615,1.5632,1.5623,1.5655,1.5659,1.5656,1.5653,1.5657,1.5657,1.5662,1.5657,1.5647,1.5646,1.5646,1.5645,0,1.5615,1.5604,1.5637,1.5634,1.5634,1.5659,1.5656,1.5675,1.5668,1.5693,1.5698,1.5688,1.5707,1.5696,1.5716,1.571,1.5752,1.5743,1.575,1.5747,1.5778,1.5775,1.5885,1.5898,1.5799,1.58,1.5801,0,1.5665,1.5688,1.5686,1.5697,1.5699,1.5717,1.5726,1.571,1.5721,1.5728,1.5746,1.5763,1.5775,1.5808,1.5803,1.5818,1.5809,1.5846,1.5811,1.5814,1.5808,1.5806,1.5808,1.5853,1.5854,1.5855,1.5856,0,1.5753,1.5746,1.576,1.5772,1.5784,1.5793,1.58,1.581,1.5794,1.5807,1.5826,1.5836,1.5856,1.5873,1.5886,1.5887,1.5869,1.5867,1.5875,1.5879,1.5881,1.5879,1.5767,1.5864,1.5863,1.5863,1.5862,1.5862,1.5818,1.5837,1.5839,1.5855,1.5859,1.5866,1.5883,1.5878,1.5894,1.5908,1.5898,1.592,1.5924,1.5939,1.5943,1.5961,1.5946,1.5957,1.596,1.5963,1.5966,1.5879,1.5963,1.5963,1.5963,1.5963,1.5962,0,1.5904,1.5904,1.5919,1.5929,1.5942,1.5924,1.5931,1.5943,1.5962,1.5967,1.598,1.6002,1.6018,1.6015,1.603,1.6044,1.6036,1.6049,1.6047,1.6047,1.598,1.5971,1.6055,1.6055,1.6055,1.6055,1.6055,1.6055,1.595,1.598,1.5974,1.6006,1.6006,1.6027,1.6032,1.6039,1.6043,1.6068,1.6081,1.6078,1.608,1.6095,1.6109,1.6108,1.6114,1.6129,1.6125,1.6061,1.6052,1.6043,1.6035,1.6131,1.6131,1.6191,1.6191,1.6192]},{"header":{"parameterUnit":"m.s-1","parameterCategory":1,"la1":30.2991,"la2":30.254,"lo1":-89.0895,"lo2":-89.0444,"dy":0.0017,"dx":0.0017,"nx":28,"ny":28,"refTime":"2026-02-11T09:00:00:Z","depth":0,"parameterNumber":3,"parameterNumberName":"V-component_of_WINDS"},"data":[0,0,0,0,0,0,0,0,0,0,0,0,0,0,0,0,0,0,0,0,0,0,0,0,0,0,0,0,0,0,0,0,0,0,0,0,0,0,0,0,0,0,0,0,0,0,0,0,0,0,0,0,0,0,0,0,0,0,0.8122,0.8122,0,0.8086,0.8086,0.8085,0.8085,0.8086,0.8086,0.8087,0.8043,0.8042,0.804,0,0,0,0,0,0,0,0,0,0,0,0,0,0.8186,0.8185,0.8122,0.8122,0.8121,0.8086,0.8086,0.8085,0.8085,0.8086,0.8086,0.8087,0.8044,0.8042,0.804,0,0,0,0,0,0,0,0,0,0,0,0,0,0.8154,0.8184,0.8122,0.8117,0.8117,0.8086,0.8085,0.8085,0.8085,0.8086,0.8087,0.8087,0.8045,0.8042,0.804,0.801,0,0,0.8032,0.8031,0,0,0,0,0,0,0,0,0.8156,0.8152,0.8119,0.8118,0.8117,0.8091,0.8092,0.806,0.8085,0.8097,0.8087,0.8088,0.8058,0.8055,0.8046,0.8008,0.8006,0.8032,0.8031,0.803,0.8029,0,0,0,0,0,0,0,0.8158,0.8154,0.8108,0.8118,0.8117,0.8115,0.8111,0.8086,0.8074,0.8096,0.8096,0.8092,0.8058,0.8048,0.8045,0.8005,0.8032,0.803,0.8029,0.8028,0.7939,0.7938,0,0,0,0,0,0,0.8162,0.8155,0.8109,0.8107,0.8139,0.8113,0.8109,0.8098,0.8074,0.8071,0.8091,0.8092,0.8052,0.8048,0.8044,0.8006,0.803,0.8027,0.8026,0.794,0.7939,0.7938,0,0,0,0,0,0,0.8164,0.8158,0.811,0.8131,0.8125,0.8111,0.8099,0.8097,0.8088,0.8071,0.8068,0.8084,0.8053,0.8047,0.8018,0.8005,0.8026,0.8024,0.7941,0.794,0.7939,0.7932,0,0,0,0,0,0,0.8166,0.8159,0.8149,0.8131,0.8124,0.8088,0.8098,0.8096,0.8085,0.8085,0.8063,0.806,0.8053,0.8022,0.8016,0.8002,0.8022,0.7942,0.7941,0.7939,0.7933,0.793,0.7928,0,0,0,0,0,0.8168,0.8147,0.8148,0.8143,0.8111,0.8087,0.8083,0.8076,0.8084,0.8072,0.8061,0.8061,0.8007,0.8019,0.8012,0.7997,0.7943,0.7941,0.7939,0.7934,0.7931,0.7928,0,0,0,0,0,0,0.8162,0.8145,0.8146,0.8119,0.8105,0.8087,0.8073,0.8073,0.8055,0.8056,0.8047,0.8042,0.8013,0.8002,0.8016,0.7966,0.7976,0.7972,0.7974,0.7971,0.7968,0.7971,0.802,0,0,0,0,0,0.8158,0.8142,0.8127,0.8105,0.8098,0.8087,0.8076,0.8072,0.8056,0.8049,0.8036,0.8018,0.7997,0.7984,0.7963,0.7932,0.7926,0.7917,0.7915,0.7913,0.791,0.789,0.7886,0.7931,0.7931,0.7931,0,0,0.8149,0.8137,0.8127,0.8103,0.8092,0.8073,0.8081,0.8061,0.8047,0.8045,0.8018,0.8007,0.7987,0.7957,0.7942,0.7947,0.7896,0.791,0.7909,0.7907,0.7888,0.7884,0.788,0.793,0.793,0.7931,0,0,0.8122,0.8113,0.8093,0.8082,0.8065,0.8057,0.8053,0.8035,0.8028,0.8001,0.8,0.7981,0.7945,0.7931,0.7919,0.7886,0.7885,0.788,0.7866,0.7847,0.7844,0.784,0.7827,0.7823,0.7877,0.7877,0.7877,0,0.8113,0.8086,0.8082,0.8062,0.8051,0.8051,0.803,0.8018,0.7994,0.7985,0.7991,0.7946,0.7932,0.7898,0.789,0.7881,0.7873,0.7882,0.7845,0.7842,0.7838,0.7826,0.7821,0.7876,0.7876,0.7876,0.7876,0,0.8074,0.8056,0.8042,0.8021,0.8008,0.7987,0.7978,0.7965,0.7962,0.7954,0.7925,0.7909,0.7885,0.7876,0.7873,0.7841,0.7844,0.7847,0.7857,0.7834,0.7822,0.7817,0.7875,0.7875,0.7876,0.7876,0,0,0.8043,0.8021,0.8015,0.8006,0.7987,0.7971,0.795,0.7928,0.7917,0.79,0.788,0.785,0.7853,0.7839,0.7834,0.7818,0.7792,0.7823,0.7822,0.7817,0.7753,0.775,0.7745,0.7791,0.779,0.7789,0.7755,0,0.8014,0.7978,0.7974,0.7941,0.7923,0.7922,0.7903,0.7888,0.7879,0.7861,0.785,0.7829,0.7835,0.7827,0.7811,0.7798,0.7779,0.7801,0.777,0.7769,0.7775,0.7739,0.7736,0.7704,0.775,0.7749,0.7749,0,0.7975,0.796,0.7926,0.7909,0.7901,0.7884,0.7864,0.7847,0.7829,0.7824,0.7808,0.7805,0.778,0.7791,0.7756,0.7771,0.7758,0.775,0.7748,0.7744,0.7757,0.7733,0.7694,0.7689,0.7742,0.7742,0.7743,0,0.7955,0.7925,0.79,0.7892,0.7872,0.786,0.785,0.7834,0.7821,0.7802,0.7793,0.7771,0.7758,0.774,0.773,0.7739,0.7695,0.7705,0.7688,0.7688,0.7677,0.7678,0.7635,0.7671,0.7671,0.7671,0.7671,0,0.7922,0.7901,0.7891,0.7876,0.7851,0.7845,0.7821,0.7811,0.7796,0.7777,0.7775,0.7757,0.7745,0.7725,0.7716,0.7687,0.7682,0.7675,0.7673,0.7675,0.7675,0.7665,0.7667,0.767,0.767,0.767,0.7671,0,0.7894,0.7887,0.786,0.7844,0.7839,0.7822,0.7806,0.779,0.7782,0.7758,0.7752,0.7738,0.7714,0.7702,0.7671,0.7666,0.7632,0.7632,0.7639,0.7638,0.762,0.7622,0.7568,0.756,0.7603,0.7603,0.7602,0,0.7874,0.7858,0.784,0.7828,0.7819,0.78,0.7787,0.778,0.7767,0.7745,0.7731,0.7707,0.7688,0.7649,0.7634,0.761,0.7609,0.7591,0.7605,0.7607,0.7607,0.7607,0.7605,0.7589,0.7588,0.7588,0.7588,0,0.7837,0.7835,0.7818,0.7799,0.7784,0.7769,0.7753,0.7743,0.7733,0.7717,0.7694,0.7679,0.7649,0.7624,0.7599,0.7587,0.7584,0.7584,0.7578,0.7579,0.7584,0.758,0.7631,0.7585,0.7585,0.7585,0.7585,0.7586,0.7812,0.7797,0.7782,0.7763,0.7751,0.7737,0.7721,0.7711,0.7692,0.7668,0.7664,0.7639,0.7619,0.7586,0.7573,0.7551,0.7555,0.7547,0.7545,0.7543,0.7541,0.7588,0.7547,0.7547,0.7547,0.7547,0.7547,0,0.7774,0.7765,0.7747,0.7727,0.7711,0.7713,0.7695,0.7681,0.766,0.7643,0.7625,0.7597,0.7573,0.7557,0.7532,0.7517,0.7516,0.7511,0.7511,0.7508,0.754,0.7547,0.7513,0.7513,0.7513,0.7513,0.7513,0.7513,0.7753,0.7728,0.7723,0.7692,0.7682,0.7658,0.7648,0.7634,0.7621,0.7591,0.7572,0.7562,0.7545,0.7519,0.7496,0.7492,0.7482,0.7477,0.7473,0.7502,0.7506,0.7509,0.7516,0.7476,0.7476,0.7442,0.7442,0.7442]}]]